Flag for Germany Weather past 2 weeks in Rodgau, Hesse, Germany

Now
70 °F

Sunny.


Feels Like: 70 °F
Forecast: 60 / 80 °F
Wind: 12 mph from Northeast

Location: Frankfurt-M-Flughafen Airport

Current Time: Jul 23, 2014 at 10:13:56 AM

Latest Report: Jul 23, 2014 at 7:50 AM


Visibility: 10 mi

Pressure: 30.04 "Hg

Humidity: 73%

Dew point: 61 °F

Location of RodgauLocation

Historic Weather in Rodgau — Graph

°F

Rodgau temperature yesterday

Maximum temperature yesterday: 84 °F (at 5:20 PM)
Minimum temperature yesterday: 68 °F (at 5:20 AM)
Average temperature yesterday: 75 °F

Past Weeks' High & Low Weather Summary

 TemperatureHumidityPressure
High93 °F (Jul 19, 4:20 PM)100% (Jul 8, 7:20 AM)30.18 "Hg (Jul 8, 7:20 AM)
Low54 °F (Jul 9, 5:50 AM)23% (Jul 18, 6:20 PM)29.71 "Hg (Jul 9, 3:50 PM)
Average70 °F73%29.93 "Hg
* Reported Jul 8 7:20 AM — Jul 23 7:20 AM, Rodgau, Weather by CustomWeather, © 2014

Note: Actual official high and low records may vary slightly from our data, if they occured in-between our weather recording intervals... More about our weather records

Advertising

Rodgau weather history for previous 24 hours

 ConditionsComfort  
Time TempWeatherWind HumidityBarometerVisibility
7:20 AM
Jul 23
70 °FSunny.12 mph73%30.04 "Hg10 mi
6:50 AM68 °FSunny.10 mph73%30.04 "Hg10 mi
6:20 AM68 °FClear.9 mph73%30.04 "Hg10 mi
5:50 AM70 °FClear.10 mph69%30.04 "Hg10 mi
5:20 AM70 °FClear.10 mph69%30.04 "Hg10 mi
4:50 AM70 °FClear.10 mph69%30.01 "Hg10 mi
4:20 AM70 °FClear.13 mph69%30.04 "Hg10 mi
3:50 AM72 °FClear.12 mph65%30.04 "Hg10 mi
3:20 AM72 °FClear.10 mph69%30.04 "Hg10 mi
2:50 AM72 °FClear.12 mph69%30.04 "Hg10 mi
2:20 AM72 °FClear.13 mph69%30.04 "Hg10 mi
1:50 AM73 °FClear.10 mph65%30.04 "Hg10 mi
6:50 PM
Jul 22
84 °FSunny.14 mph37%29.98 "Hg10 mi
6:20 PM84 °FSunny.14 mph35%29.95 "Hg10 mi
5:50 PM84 °FSunny.15 mph35%29.95 "Hg10 mi
5:20 PM84 °FSunny.15 mph37%29.95 "Hg10 mi
4:50 PM82 °FSunny.15 mph42%29.95 "Hg10 mi
4:20 PM82 °FSunny.15 mph42%29.98 "Hg10 mi
3:50 PM82 °FBroken clouds.13 mph45%29.98 "HgN/A
3:20 PM82 °FBroken clouds.15 mph45%29.95 "HgN/A
2:50 PM82 °FBroken clouds.14 mph48%29.98 "HgN/A
2:20 PM81 °FPartly sunny.15 mph48%29.98 "HgN/A
1:50 PM81 °FPartly sunny.15 mph51%29.98 "HgN/A
1:20 PM81 °FPartly sunny.14 mph54%29.95 "HgN/A
12:50 PM79 °FPartly sunny.12 mph61%29.95 "HgN/A
12:20 PM77 °FPartly sunny.12 mph65%29.95 "HgN/A
11:50 AM77 °FSunny.15 mph65%29.95 "Hg10 mi
11:20 AM75 °FPartly sunny.15 mph69%29.95 "HgN/A
10:50 AM75 °FSunny.15 mph69%29.95 "Hg10 mi
10:20 AM73 °FPartly sunny.13 mph78%29.95 "HgN/A
Weather by CustomWeather, © 2014

See weather overviewHow to use our weather pages